This is the latest recevied weather packets stored in our database for station/object OH2EGI-2. If no packets are shown the sender has not sent any weather packets the latest 10 day(s).
| Time | Temp. | Humidity | Pressure | Rain* | Wind** | Luminosity | Snow |
|---|---|---|---|---|---|---|---|
| 1777555316 | 18.89° C | 43% | 1012.1 hPa | 0 mm | - | - | - |
| 1777555016 | 20° C | 42% | 1012.1 hPa | 0 mm | - | - | - |
| 1777554716 | 21.67° C | 41% | 1012.1 hPa | 0 mm | - | - | - |
| 1777554416 | 21.11° C | 43% | 1012.1 hPa | 0 mm | - | - | - |
| 1777554116 | 20° C | 42% | 1012.3 hPa | 0 mm | - | - | - |
| 1777553816 | 20.56° C | 42% | 1012.3 hPa | 0 mm | - | - | - |
| 1777553516 | 20.56° C | 44% | 1012.3 hPa | 0 mm | - | - | - |
| 1777553216 | 18.89° C | 46% | 1012.3 hPa | 0 mm | - | - | - |
| 1777552916 | 18.33° C | 46% | 1012.4 hPa | 0 mm | - | - | - |
| 1777552616 | 18.89° C | 46% | 1012.5 hPa | 0 mm | - | - | - |
| 1777552316 | 17.78° C | 48% | 1012.4 hPa | 0 mm | - | - | - |
| 1777552016 | 16.67° C | 49% | 1012.5 hPa | 0 mm | - | - | - |
| 1777551716 | 16.67° C | 48% | 1012.5 hPa | 0 mm | - | - | - |
| 1777551416 | 16.67° C | 48% | 1012.5 hPa | 0 mm | - | - | - |
| 1777551116 | 16.67° C | 48% | 1012.4 hPa | 0 mm | - | - | - |
| 1777550816 | 16.67° C | 48% | 1012.6 hPa | 0 mm | - | - | - |
| 1777550516 | 16.67° C | 48% | 1012.5 hPa | 0 mm | - | - | - |
| 1777550216 | 16.67° C | 48% | 1012.5 hPa | 0 mm | - | - | - |
| 1777549916 | 17.22° C | 48% | 1012.8 hPa | 0 mm | - | - | - |
| 1777549616 | 16.67° C | 48% | 1012.6 hPa | 0 mm | - | - | - |
| 1777549316 | 16.67° C | 48% | 1012.6 hPa | 0 mm | - | - | - |
| 1777549016 | 16.67° C | 49% | 1012.6 hPa | 0 mm | - | - | - |
| 1777548716 | 16.11° C | 49% | 1012.5 hPa | 0 mm | - | - | - |
| 1777548416 | 15.56° C | 48% | 1012.4 hPa | 0 mm | - | - | - |
| 1777548116 | 16.67° C | 47% | 1012.7 hPa | 0 mm | - | - | - |
* Rain latest hour (hover to see other rain measurements)
** Current wind speed in m/s (hover to see current wind gust speed)